Location: Dackenheim
(49.5215°N, 8.1854°E)
Time: 02:50:11
(UTC+00:00)

AO-91 - Pass Details

Date: 16 March 2026
Orbit: 425 x 637 km, 97.5° (Epoch: 13 April)

Event Time Altitude Azimuth Distance (km) Brightness Sun altitude
Rises 18:31:10 0° 44° (NE) 2,949 ? -10.1°
Enters shadow 18:31:48 - 49° (NE) 2,822 ? -10.2°
Exits shadow 18:59:27 -44° 172° (S) 9,515 ? -14.6°
Reaches altitude 10° 20:06:08 10° 26° (NNE) 2,039 ? -24.6°
